EHI
0 1 1 1 0 0 0 1 2 3 3 4 4 3 3 3 2 1 1 0 1 2 3 3 3 1 0 0 0 0 0 1 2 3 2 1 0 0 0 0 0 0 1
1 2 2 2 1 0 0 0 1 2 4 5 4 3 3 3 3 2 2 1 1 2 3 3 3 2 0 0 0 0 0 0 1 2 2 1 0 0 1 1 1 2 2
2 3 3 3 1 0 0 0 0 1 4 5 4 3 2 2 2 3 2 1 1 1 2 3 2 1 0 0 0 0 0 0 0 1 1 0 0 0 1 2 3 4 4
3 3 3 3 2 1 0 0 0 1 2 3 3 2 1 1 1 1 2 2 1 1 1 2 1 0 0 0 0 0 0 0 0 0 0 0 0 0 1 2 4 5 5
3 3 3 3 2 1 0 0 0 0 1 2 2 1 0 0 0 0 1 2 2 1 0 0 0 0 0 0 0 0 0 0 0 0 0 0 0 0 0 1 3 4 4
3 3 3 3 3 1 1 0 0 0 0 1 1 1 0 0 0 0 1 2 2 1 0 0 0 0 0 0 0 0 0 0 0 0 0 0 0 0 0 0 2 4 4
2 1 1 3 3 3 2 1 0 0 0 0 0 0 0 0 0 0 0 1 2 1 0 0 0 0 0 0 0 0 0 0 0 0 0 0 0 1 1 1 2 3 4
2 1 1 2 3 3 3 2 1 0 0 0 0 0 0 0 0 0 0 0 0 0 0 0 0 0 0 0 0 0 0 0 0 0 0 0 0 0 1 2 2 1 1
1 1 0 1 2 3 3 3 2 1 0 0 0 0 0 0 0 0 0 0 0 0 0 0 0 0 0 0 0 0 0 0 0 0 0 0 0 0 1 2 2 1 0
1 1 0 1 1 1 1 2 2 1 0 0 0 0 1 1 0 1 1 0 0 0 0 0 0 0 0 0 0 0 0 0 0 0 0 0 0 0 1 2 1 0 0
0 0 0 0 0 0 0 1 1 0 0 0 0 0 1 1 1 1 2 1 0 0 0 0 0 0 0 0 0 1 0 0 0 0 0 0 0 0 1 2 1 1 0
0 0 0 0 0 0 0 0 0 0 0 0 0 0 1 1 0 1 2 1 0 0 0 0 0 0 0 0 0 0 0 0 0 0 0 0 0 0 1 2 3 2 1
0 0 0 0 0 0 0 0 0 0 0 0 0 0 0 0 0 0 1 1 0 0 0 1 1 1 0 0 0 0 0 0 0 0 1 1 1 1 2 4 4 2 1
0 0 0 0 0 0 0 0 0 0 0 0 0 0 0 0 0 0 0 0 0 0 0 0 0 0 0 0 0 0 0 0 0 0 1 2 2 2 4 5 5 4 3
0 0 0 0 0 0 0 0 0 0 0 0 0 0 0 0 0 0 0 0 0 0 0 0 0 0 0 0 0 0 0 0 0 0 1 1 2 2 4 5 5 5 5
0 0 0 0 0 0 0 0 0 0 0 0 0 0 0 0 0 0 0 0 0 0 0 0 0 0 0 0 0 0 0 0 0 0 0 0 0 1 2 2 3 3 3
0 0 0 0 0 0 0 0 0 0 0 0 0 0 0 0 0 0 0 0 0 0 0 0 0 0 0 0 0 0 0 0 0 0 0 0 0 0 0 1 1 1 1
0 0 0 0 0 0 0 0 0 0 0 0 0 0 0 0 0 0 0 0 0 0 0 0 0 0 0 0 0 0 0 0 0 0 0 0 0 0 0 1 1 0 0
0 0 0 0 0 0 0 0 0 0 0 0 0 0 0 0 0 0 0 0 0 0 0 0 0 0 0 0 0 0 0 0 0 0 0 0 0 0 0 0 0 0 0
0 0 0 0 0 0 0 0 0 0 0 0 0 0 0 0 0 0 0 0 0 0 0 0 0 0 0 0 0 0 0 0 0 0 0 0 0 0 0 0 0 0 0
0 0 0 0 0 0 0 0 0 0 0 0 0 0 0 0 0 0 0 0 0 0 0 0 0 0 0 0 0 0 0 0 0 0 0 0 0 0 0 0 0 0 0
0 0 0 0 0 0 0 0 0 0 0 0 0 0 0 0 0 0 0 0 0 0 0 0 0 0 0 0 0 0 0 0 0 0 0 0 0 0 0 0 0 0 0
0 0 0 0 0 0 0 0 0 0 0 0 0 0 0 0 0 0 0 0 0 0 0 0 0 0 0 0 0 0 0 0 0 0 0 0 0 0 0 0 0 0 0
0 0 0 0 0 0 0 0 0 0 0 0 0 0 0 0 0 0 0 0 0 0 0 0 0 0 0 0 0 0 0 0 0 0 0 0 0 0 0 0 0 0 0
0 0 0 0 0 0 0 0 0 0 0 0 0 0 0 0 0 0 0 0 0 0 0 0 0 0 0 0 0 0 0 0 0 0 0 0 0 0 0 0 0 0 0
0 0 0 0 0 0 0 0 0 0 0 0 0 0 0 0 0 0 0 0 0 0 0 0 0 0 0 0 0 0 0 0 0 0 0 0 0 0 0 0 0 0 0
Wind_Speed
2 2 2 4 6 7 8 8 10 9 10 10 10 11 11 11 11 10 10 10 9 9 9 9 8 9 9 9 9 9 9 10 10 10 10 10 9 9 9 9 8 5 8
0 1 3 5 6 7 8 8 9 9 9 10 10 10 10 10 10 10 10 10 9 9 9 9 8 9 9 9 9 10 10 10 10 10 10 9 9 9 9 9 8 6 9
2 1 2 6 7 8 8 8 9 9 9 10 10 10 11 10 10 10 10 10 10 10 10 9 9 10 10 10 10 10 11 11 11 11 10 5 5 9 9 10 9 10 9
3 2 2 6 7 7 8 8 9 10 10 10 10 11 11 10 10 10 10 10 10 11 11 12 12 11 11 10 10 11 11 11 11 10 6 5 4 9 10 10 10 10 10
3 2 2 7 7 7 8 8 8 9 9 10 10 10 10 10 10 10 10 10 11 11 11 11 12 12 11 11 11 11 12 12 11 9 5 5 4 8 9 10 10 10 10
3 2 2 6 7 7 7 8 8 8 9 9 9 9 10 9 9 10 10 10 10 11 11 11 11 12 12 12 12 12 12 12 9 5 5 4 3 8 9 9 9 9 9
3 3 2 5 6 7 7 7 7 8 8 8 9 8 9 9 9 9 9 10 10 11 10 10 11 12 11 12 12 12 12 11 7 5 4 4 4 8 9 10 10 10 10
3 3 3 4 5 6 6 7 7 7 7 8 8 8 8 8 8 8 9 9 9 10 10 11 11 12 12 11 12 12 12 10 7 6 4 4 6 9 9 10 10 10 10
4 4 3 3 3 4 5 6 6 7 7 7 7 8 8 8 7 8 8 8 9 9 10 11 11 11 12 11 12 12 12 12 6 4 5 3 6 8 9 9 9 9 10
4 4 4 4 4 3 3 4 5 6 7 7 7 7 8 8 7 8 7 8 9 10 11 11 11 12 12 12 12 12 12 9 5 5 3 4 8 8 9 9 9 9 9
3 3 3 3 3 3 3 4 4 5 6 6 6 8 7 4 4 4 6 8 9 10 11 11 11 12 11 11 12 12 9 4 4 4 3 7 8 8 9 9 9 9 9
1 2 2 2 2 3 3 3 3 3 4 4 4 4 3 3 3 5 7 9 9 10 10 11 12 11 9 5 8 9 4 5 4 3 4 9 9 9 8 8 8 8 9
0 1 1 1 1 2 2 2 2 2 2 3 3 3 3 3 3 4 3 5 5 7 5 7 7 5 5 4 4 4 5 4 3 3 5 10 10 9 9 8 8 8 9
1 0 1 1 1 2 2 2 2 2 2 2 2 3 3 2 3 3 2 3 3 3 4 4 4 5 6 6 5 5 6 4 4 3 5 11 11 10 10 10 10 9 9
1 0 1 2 2 2 2 2 2 1 2 2 2 2 3 2 2 2 2 3 3 3 4 4 4 5 5 5 5 6 5 5 5 5 5 11 12 11 11 11 11 10 10
2 1 1 2 2 2 2 1 1 1 1 2 2 2 3 2 2 3 3 3 3 3 3 4 4 4 4 4 5 5 5 5 5 5 5 7 12 12 11 11 11 10 10
2 1 2 2 2 2 2 1 2 1 2 2 2 2 3 3 3 3 3 3 2 3 4 4 4 4 4 5 5 5 5 5 5 6 6 5 6 11 12 12 11 10 10
2 2 2 2 3 2 2 2 2 2 2 2 2 2 3 3 4 4 3 3 2 3 3 4 3 4 4 4 4 4 4 4 6 6 5 6 5 5 8 12 11 10 9
3 3 2 2 3 3 3 2 2 2 2 2 2 2 2 3 3 3 3 2 3 3 3 4 3 3 4 4 4 4 4 4 4 5 6 6 6 5 5 8 10 10 10
3 3 3 3 3 3 3 2 2 3 2 2 2 2 2 2 3 4 3 3 3 3 3 3 4 3 3 3 5 5 4 4 4 5 5 5 5 6 6 6 5 7 10
3 3 3 3 3 3 2 2 2 1 1 1 1 2 2 2 3 3 3 3 3 3 3 4 3 4 3 2 3 3 4 4 5 4 4 4 5 6 6 6 5 4 4
4 3 3 3 3 3 2 2 2 2 1 1 1 1 1 1 2 3 3 3 3 3 4 3 3 2 1 1 2 2 2 3 3 4 3 4 5 4 5 6 6 5 4
4 4 4 4 4 3 3 3 3 3 2 2 1 1 1 1 1 2 3 3 3 3 3 3 3 3 2 0 1 2 2 1 1 3 3 4 4 4 4 4 5 5 5
5 4 4 4 4 3 4 3 4 2 2 2 1 0 1 1 1 2 3 3 3 2 3 3 2 2 3 1 1 1 1 3 2 1 2 3 3 4 4 4 4 5 5
5 5 4 4 3 3 4 4 4 2 1 1 1 1 1 1 1 1 2 3 3 2 3 2 2 2 2 2 2 1 2 2 2 2 0 2 2 2 2 3 3 3 4
3 4 4 4 4 3 4 4 4 4 3 2 1 1 0 0 0 1 2 2 2 2 3 2 2 2 1 2 2 2 2 2 2 2 2 0 1 2 2 2 2 2 2
Wind_Direction
308 310 12 69 76 79 78 77 80 83 84 86 87 89 91 92 92 89 86 86 82 80 79 76 76 79 81 80 78 81 83 81 79 77 76 78 82 82 82 82 79 69 81
214 324 70 77 80 82 82 82 85 87 87 87 87 89 90 91 91 88 85 82 79 78 76 73 77 78 80 81 79 80 79 78 76 74 72 71 75 77 79 81 83 81 81
82 39 74 86 85 85 85 85 84 88 88 88 87 86 87 87 87 85 84 80 76 75 70 66 79 84 81 81 80 79 79 78 75 73 67 51 61 75 78 80 83 84 82
94 66 77 92 88 83 83 84 85 89 89 88 87 86 85 85 86 83 81 78 75 74 71 68 79 84 83 83 81 80 79 77 76 73 56 42 50 76 77 78 79 82 81
81 60 82 92 91 86 82 81 87 90 89 89 87 86 84 84 83 81 80 78 75 74 74 73 75 80 83 85 84 81 80 76 74 63 50 42 42 77 80 80 80 81 81
80 64 86 96 92 87 83 81 84 89 88 87 85 84 83 84 82 80 77 75 73 72 72 73 76 79 83 84 84 81 79 75 66 51 46 43 47 76 81 82 80 80 82
81 62 69 95 94 90 87 81 81 85 86 84 82 81 81 83 82 78 74 71 69 69 70 74 78 80 81 83 82 79 76 74 65 53 45 43 62 76 78 78 77 76 78
77 63 57 82 87 82 78 77 80 84 83 81 78 76 78 80 79 74 74 72 70 67 69 73 79 81 81 81 79 77 72 69 62 54 46 45 72 76 76 77 75 74 74
59 54 39 36 52 69 71 73 76 78 77 77 77 75 75 76 75 73 74 74 71 69 71 75 80 80 82 82 79 77 71 63 51 44 51 46 70 77 77 74 74 75 74
52 45 38 33 32 33 41 63 68 70 68 69 70 67 63 62 61 63 63 69 71 69 69 73 80 79 79 81 79 74 67 57 42 40 34 54 68 78 79 76 74 74 78
48 34 35 35 31 32 29 42 49 54 51 51 52 57 50 38 36 45 54 65 69 68 67 69 74 74 74 76 76 70 60 43 39 36 33 60 67 75 81 79 76 75 78
28 22 39 33 26 31 33 36 28 38 39 44 45 44 43 39 39 48 49 61 67 66 66 68 70 68 63 56 61 60 47 40 39 32 44 58 65 70 79 84 82 80 80
198 28 50 46 32 45 40 39 29 31 35 41 46 46 53 48 41 41 43 41 49 59 58 60 62 60 61 58 57 52 45 43 35 28 39 54 61 68 76 75 76 80 82
111 65 66 94 69 54 54 46 44 38 37 38 42 55 66 62 51 46 51 47 50 56 65 63 67 64 63 60 60 55 48 46 36 26 37 49 53 63 70 69 71 77 80
149 148 92 103 104 78 60 43 54 43 47 44 45 55 74 80 75 64 59 58 59 64 70 71 70 68 62 57 57 57 50 46 42 36 30 43 47 53 60 64 68 72 74
192 196 123 104 113 103 90 66 58 62 65 60 57 69 82 88 91 82 71 65 60 66 73 76 74 74 66 62 56 52 49 46 43 41 34 31 38 46 54 60 63 67 71
196 184 156 136 112 112 105 78 71 71 79 72 59 71 84 89 95 92 86 77 69 76 82 80 73 71 70 63 54 50 50 45 43 41 36 30 27 36 44 51 57 62 66
170 165 172 142 129 126 113 88 76 79 80 79 72 68 78 88 97 97 91 85 80 79 80 85 79 75 66 61 55 46 44 43 43 45 42 35 30 27 31 41 48 55 60
165 155 144 129 137 137 117 97 84 81 80 76 76 71 80 91 99 104 101 95 91 85 79 90 76 84 84 73 66 53 43 42 38 45 42 37 34 32 26 30 38 44 49
157 143 136 123 121 116 99 85 69 61 56 56 68 71 85 96 106 106 103 101 100 93 81 83 87 72 83 82 75 59 44 40 43 40 37 35 34 33 29 28 24 28 38
144 139 144 136 137 126 113 113 102 77 39 39 47 70 83 99 111 116 116 112 110 108 112 108 99 89 75 81 79 58 40 41 47 38 31 34 33 28 30 28 24 22 23
166 164 164 162 163 161 148 140 131 125 96 52 23 40 63 99 119 129 130 131 126 116 112 112 107 102 98 77 98 92 45 14 20 29 30 38 29 23 29 30 26 29 29
178 183 183 179 174 170 145 107 81 62 48 36 23 4 351 78 119 129 140 138 140 139 147 148 139 129 141 77 81 128 133 181 346 4 23 29 24 23 18 19 27 27 28
197 186 181 178 173 165 151 144 144 151 165 211 199 214 5 59 112 127 137 138 144 145 153 167 153 142 138 143 67 60 114 144 143 45 356 9 20 23 16 19 18 21 21
192 182 179 171 170 164 162 167 160 162 177 132 90 97 43 30 68 120 140 141 147 152 162 163 151 151 148 153 150 129 91 70 105 135 162 341 360 359 4 9 13 15 14
180 175 168 170 179 174 173 173 173 174 166 149 152 164 199 8 21 132 143 148 153 157 168 170 162 164 159 147 151 153 154 153 164 144 153 204 317 327 347 5 12 6 13